,,Stat5,,Stat1,,Stat2,,Stat3,,Stat4,,Wind1,,Wind1,
time,status,PA1M_AVG,status,PR1M_SUM,status,RH1M_AVG,status,SR1M_AVG,status,TA1M_AVG,status,W1dAve1m,status,W1sAve1m,
2002-09-18, 00:00:00,VALID,920.262,VALID,0,VALID,96.221,VALID,0,VALID,19.3014,VALID,7,VALID,1.00576,
2002-09-18, 00:01:00,VALID,920.254,VALID,0,VALID,96.3635,VALID,0,VALID,19.3017,VALID,8,VALID,0.901116,
2002-09-18, 00:02:00,VALID,920.237,VALID,0,VALID,96.4398,VALID,-0.0169808,VALID,19.289,VALID,1,VALID,0.675,
2002-09-18, 00:03:00,VALID,920.238,VALID,0,VALID,96.4728,VALID,0,VALID,19.2724,VALID,358,VALID,0.853733,
2002-09-18, 00:04:00,VALID,920.246,VALID,0,VALID,96.4855,VALID,0,VALID,19.2532,VALID,4,VALID,0.927684,
2002-09-18, 00:05:00,VALID,920.234,VALID,0,VALID,96.5453,VALID,0.0169808,VALID,19.253,VALID,296,VALID,0.707442,
2002-09-18, 00:06:00,VALID,920.238,VALID,0,VALID,96.6038,VALID,0,VALID,19.2694,VALID,331,VALID,0.61402,
2002-09-18, 00:07:00,VALID,920.248,VALID,0,VALID,96.5466,VALID,0.0509425,VALID,19.2788,VALID,344,VALID,0.594595,
2002-09-18, 00:08:00,VALID,920.228,VALID,0,VALID,96.5275,VALID,0.0169808,VALID,19.2721,VALID,15,VALID,1.04036,
2002-09-18, 00:09:00,VALID,920.208,VALID,0,VALID,96.5072,VALID,0,VALID,19.2851,VALID,360,VALID,0.975962,
2002-09-18, 00:10:00,VALID,920.204,VALID,0,VALID,96.4118,VALID,0,VALID,19.2885,VALID,6,VALID,0.99933,
2002-09-18, 00:11:00,VALID,920.202,VALID,0,VALID,96.3876,VALID,0,VALID,19.2821,VALID,1,VALID,0.903166,
2002-09-18, 00:12:00,VALID,920.198,VALID,0,VALID,96.3953,VALID,0,VALID,19.3116,VALID,348,VALID,0.490785,
2002-09-18, 00:13:00,VALID,920.189,VALID,0,VALID,96.4029,VALID,0.0169808,VALID,19.3074,VALID,6,VALID,0.774639,
2002-09-18, 00:14:00,VALID,920.19,VALID,0,VALID,96.352,VALID,0,VALID,19.3275,VALID,345,VALID,0.60773,
2002-09-18, 00:15:00,VALID,920.181,VALID,0,VALID,96.3419,VALID,0,VALID,19.3174,VALID,326,VALID,0.432165,
2002-09-18, 00:16:00,VALID,920.191,VALID,0,VALID,96.4105,VALID,-0.0169808,VALID,19.3402,VALID,354,VALID,0.392428,
2002-09-18, 00:17:00,VALID,920.17,VALID,0,VALID,96.3444,VALID,-0.0169808,VALID,19.3499,VALID,349,VALID,0.0240709,
2002-09-18, 00:18:00,VALID,920.144,VALID,0,VALID,96.2935,VALID,0,VALID,19.3559,VALID,360,VALID,0.137541,
2002-09-18, 00:19:00,VALID,920.122,VALID,0,VALID,96.2935,VALID,0,VALID,19.3762,VALID,10,VALID,0.211143,
2002-09-18, 00:20:00,VALID,920.103,VALID,0,VALID,96.2808,VALID,0.0169808,VALID,19.3988,VALID,346,VALID,0.0478766,
2002-09-18, 00:21:00,VALID,920.077,VALID,0,VALID,96.1918,VALID,0,VALID,19.4053,VALID,346,VALID,0,
2002-09-18, 00:22:00,VALID,920.052,VALID,0,VALID,96.1346,VALID,-0.0169808,VALID,19.3986,VALID,346,VALID,0.0215872,
2002-09-18, 00:23:00,VALID,920.024,VALID,0,VALID,96.2007,VALID,0.0169808,VALID,19.3983,VALID,346,VALID,0.0877232,
2002-09-18, 00:24:00,VALID,920.021,VALID,0,VALID,96.221,VALID,0,VALID,19.418,VALID,346,VALID,0.0997596,
2002-09-18, 00:25:00,VALID,919.988,VALID,0,VALID,96.1498,VALID,0,VALID,19.4043,VALID,349,VALID,0.237664,
2002-09-18, 00:26:00,VALID,919.996,VALID,0,VALID,96.1358,VALID,0,VALID,19.3954,VALID,333,VALID,0.140842,
2002-09-18, 00:27:00,VALID,919.99,VALID,0,VALID,96.1956,VALID,0,VALID,19.3792,VALID,326,VALID,0,
2002-09-18, 00:28:00,VALID,919.973,VALID,0,VALID,96.2859,VALID,0,VALID,19.3822,VALID,326,VALID,0.0419922,
2002-09-18, 00:29:00,VALID,919.968,VALID,0,VALID,96.2821,VALID,0,VALID,19.3598,VALID,233,VALID,0.455859,
2002-09-18, 00:30:00,VALID,919.966,VALID,0,VALID,96.2427,VALID,0.0169808,VALID,19.33,VALID,192,VALID,0.522035,
2002-09-18, 00:31:00,VALID,919.956,VALID,0,VALID,96.2287,VALID,0.0169808,VALID,19.3047,VALID,172,VALID,0.610742,
2002-09-18, 00:32:00,VALID,919.94,VALID,0,VALID,96.2554,VALID,0.0169808,VALID,19.2627,VALID,173,VALID,0.406641,
2002-09-18, 00:33:00,VALID,919.917,VALID,0,VALID,96.3571,VALID,0,VALID,19.2465,VALID,170,VALID,0.210726,
2002-09-18, 00:34:00,VALID,919.883,VALID,0,VALID,96.4855,VALID,0,VALID,19.2302,VALID,154,VALID,0.310811,
2002-09-18, 00:35:00,VALID,919.864,VALID,0,VALID,96.6267,VALID,0,VALID,19.2269,VALID,141,VALID,0.189648,
2002-09-18, 00:36:00,VALID,919.837,VALID,0,VALID,96.7602,VALID,0.0169808,VALID,19.2302,VALID,131,VALID,0.0970982,
2002-09-18, 00:37:00,VALID,919.798,VALID,0,VALID,96.8136,VALID,0.0339617,VALID,19.2232,VALID,27,VALID,0.462695,
2002-09-18, 00:38:00,VALID,919.777,VALID,0,VALID,96.8988,VALID,0.0169808,VALID,19.2398,VALID,12,VALID,0.385216,
2002-09-18, 00:39:00,VALID,919.753,VALID,0,VALID,96.9382,VALID,0,VALID,19.2366,VALID,11,VALID,0.0189145,
2002-09-18, 00:40:00,VALID,919.74,VALID,0,VALID,96.998,VALID,-0.0169808,VALID,19.2595,VALID,11,VALID,0,
2002-09-18, 00:41:00,VALID,919.709,VALID,0,VALID,97.0056,VALID,0.0169808,VALID,19.2724,VALID,11,VALID,0.00921474,
2002-09-18, 00:42:00,VALID,919.695,VALID,0,VALID,97.0107,VALID,0,VALID,19.2657,VALID,11,VALID,0.164453,
2002-09-18, 00:43:00,VALID,919.688,VALID,0,VALID,97.0629,VALID,-0.0169808,VALID,19.2818,VALID,11,VALID,0.293791,
2002-09-18, 00:44:00,VALID,919.694,VALID,0,VALID,97.1086,VALID,0,VALID,19.3077,VALID,11,VALID,0.222356,
2002-09-18, 00:45:00,VALID,919.717,VALID,0,VALID,97.1124,VALID,0.0169808,VALID,19.3144,VALID,11,VALID,0.192107,
2002-09-18, 00:46:00,VALID,919.733,VALID,0,VALID,97.0552,VALID,0.0169808,VALID,19.3176,VALID,11,VALID,0.272593,
2002-09-18, 00:47:00,VALID,919.74,VALID,0,VALID,97.0565,VALID,0.0169808,VALID,19.334,VALID,11,VALID,0.273438,
2002-09-18, 00:48:00,VALID,919.749,VALID,0,VALID,97.0311,VALID,0.0339617,VALID,19.3176,VALID,11,VALID,0.359961,
2002-09-18, 00:49:00,VALID,919.766,VALID,0,VALID,97.0654,VALID,0.0169808,VALID,19.3303,VALID,11,VALID,0.116039,
2002-09-18, 00:50:00,VALID,919.782,VALID,0,VALID,97.1277,VALID,0,VALID,19.3496,VALID,11,VALID,0.0275493,
2002-09-18, 00:51:00,VALID,919.801,VALID,0,VALID,97.1595,VALID,0,VALID,19.366,VALID,11,VALID,0,
2002-09-18, 00:52:00,VALID,919.809,VALID,0,VALID,97.1175,VALID,0,VALID,19.3626,VALID,11,VALID,0.0176282,
2002-09-18, 00:53:00,VALID,919.792,VALID,0,VALID,97.026,VALID,0,VALID,19.3688,VALID,20,VALID,0.3125,
2002-09-18, 00:54:00,VALID,919.771,VALID,0,VALID,97.0438,VALID,0,VALID,19.366,VALID,28,VALID,0.258765,
2002-09-18, 00:55:00,VALID,919.754,VALID,0,VALID,97.0883,VALID,0.0169808,VALID,19.3822,VALID,28,VALID,0.0855369,
2002-09-18, 00:56:00,VALID,919.727,VALID,0,VALID,97.0692,VALID,0,VALID,19.3884,VALID,28,VALID,0,
2002-09-18, 00:57:00,VALID,919.705,VALID,0,VALID,97.0514,VALID,0,VALID,19.3887,VALID,28,VALID,0,
2002-09-18, 00:58:00,VALID,919.664,VALID,0,VALID,96.9891,VALID,0,VALID,19.3986,VALID,28,VALID,0,
2002-09-18, 00:59:00,VALID,919.616,VALID,0,VALID,96.942,VALID,-0.0169808,VALID,19.3852,VALID,28,VALID,0,
2002-09-18, 01:00:00,VALID,919.593,VALID,0,VALID,96.9344,VALID,0,VALID,19.3695,VALID,28,VALID,0,
2002-09-18, 01:01:00,VALID,919.579,VALID,0,VALID,96.8505,VALID,-0.0169808,VALID,19.3596,VALID,28,VALID,0.0106908,
2002-09-18, 01:02:00,VALID,919.572,VALID,0,VALID,96.7844,VALID,0,VALID,19.337,VALID,28,VALID,0.100893,
2002-09-18, 01:03:00,VALID,919.566,VALID,0,VALID,96.7513,VALID,0,VALID,19.3208,VALID,28,VALID,0.161458,
2002-09-18, 01:04:00,VALID,919.542,VALID,0,VALID,96.8556,VALID,-0.0169808,VALID,19.291,VALID,28,VALID,0.103002,
2002-09-18, 01:05:00,VALID,919.552,VALID,0,VALID,96.8416,VALID,0,VALID,19.2853,VALID,28,VALID,0.572483,
2002-09-18, 01:06:00,VALID,919.55,VALID,0,VALID,96.7081,VALID,-0.0169808,VALID,19.2567,VALID,22,VALID,0.559211,
2002-09-18, 01:07:00,VALID,919.547,VALID,0,VALID,96.6814,VALID,-0.0169808,VALID,19.208,VALID,22,VALID,0.603906,
2002-09-18, 01:08:00,VALID,919.54,VALID,0,VALID,96.7462,VALID,0,VALID,19.1792,VALID,22,VALID,0.662305,
2002-09-18, 01:09:00,VALID,919.524,VALID,0,VALID,96.7933,VALID,-0.0169808,VALID,19.1732,VALID,22,VALID,0.488381,
2002-09-18, 01:10:00,VALID,919.538,VALID,0,VALID,96.7513,VALID,-0.0169808,VALID,19.1206,VALID,22,VALID,0.482227,
2002-09-18, 01:11:00,VALID,919.542,VALID,0,VALID,96.8607,VALID,0,VALID,19.0982,VALID,17,VALID,0.458594,
2002-09-18, 01:12:00,VALID,919.54,VALID,0,VALID,96.9293,VALID,-0.0339617,VALID,19.0788,VALID,17,VALID,0.32348,
2002-09-18, 01:13:00,VALID,919.542,VALID,0,VALID,97.0005,VALID,-0.0169808,VALID,19.0694,VALID,18,VALID,0.208193,
2002-09-18, 01:14:00,VALID,919.516,VALID,0,VALID,97.0005,VALID,0,VALID,19.0433,VALID,18,VALID,0.655078,
2002-09-18, 01:15:00,VALID,919.476,VALID,0,VALID,97.2587,VALID,-0.0509425,VALID,19.0597,VALID,3,VALID,0.56942,
2002-09-18, 01:16:00,VALID,919.447,VALID,0,VALID,97.3909,VALID,-0.0169808,VALID,19.0791,VALID,4,VALID,0.51875,
2002-09-18, 01:17:00,VALID,919.392,VALID,0,VALID,97.3146,VALID,0,VALID,19.0823,VALID,4,VALID,0.333333,
2002-09-18, 01:18:00,VALID,919.368,VALID,0,VALID,97.2587,VALID,-0.0509425,VALID,19.0664,VALID,351,VALID,0.509457,
2002-09-18, 01:19:00,VALID,919.345,VALID,0,VALID,97.4901,VALID,-0.0339617,VALID,19.1022,VALID,13,VALID,0.651933,
2002-09-18, 01:20:00,VALID,919.331,VALID,0,VALID,97.5511,VALID,-0.0169808,VALID,19.1176,VALID,13,VALID,0.469551,
2002-09-18, 01:21:00,VALID,919.326,VALID,0,VALID,97.4278,VALID,-0.0169808,VALID,19.1077,VALID,13,VALID,0.101367,
2002-09-18, 01:22:00,VALID,919.315,VALID,0,VALID,97.3273,VALID,0,VALID,19.1022,VALID,13,VALID,0,
2002-09-18, 01:23:00,VALID,919.302,VALID,0,VALID,97.3146,VALID,-0.0169808,VALID,19.0754,VALID,13,VALID,0,
2002-09-18, 01:24:00,VALID,919.292,VALID,0,VALID,97.2943,VALID,0,VALID,19.0788,VALID,13,VALID,0,
2002-09-18, 01:25:00,VALID,919.274,VALID,0,VALID,97.3986,VALID,0,VALID,19.0989,VALID,13,VALID,0.000422297,
2002-09-18, 01:26:00,VALID,919.25,VALID,0,VALID,97.349,VALID,0,VALID,19.0955,VALID,12,VALID,0.211993,
2002-09-18, 01:27:00,VALID,919.246,VALID,0,VALID,97.1137,VALID,-0.0169808,VALID,19.0597,VALID,12,VALID,0,
2002-09-18, 01:28:00,VALID,919.243,VALID,0,VALID,97.0781,VALID,0,VALID,19.0272,VALID,12,VALID,0.0278033,
2002-09-18, 01:29:00,VALID,919.246,VALID,0,VALID,97.1798,VALID,0,VALID,19.0073,VALID,12,VALID,0,
2002-09-18, 01:30:00,VALID,919.243,VALID,0,VALID,97.1811,VALID,0,VALID,19.0046,VALID,12,VALID,0.00120192,
2002-09-18, 01:31:00,VALID,919.253,VALID,0,VALID,97.0984,VALID,0,VALID,18.9849,VALID,12,VALID,0,
2002-09-18, 01:32:00,VALID,919.258,VALID,0,VALID,97.0972,VALID,0,VALID,18.9626,VALID,12,VALID,0,
2002-09-18, 01:33:00,VALID,919.254,VALID,0,VALID,97.1824,VALID,0,VALID,18.9437,VALID,12,VALID,0,
2002-09-18, 01:34:00,VALID,919.255,VALID,0,VALID,97.4532,VALID,0,VALID,18.9566,VALID,12,VALID,0,
2002-09-18, 01:35:00,VALID,919.238,VALID,0,VALID,97.6033,VALID,0,VALID,18.9916,VALID,12,VALID,0,
2002-09-18, 01:36:00,VALID,919.226,VALID,0,VALID,97.5969,VALID,0,VALID,19.0043,VALID,12,VALID,0,
2002-09-18, 01:37:00,VALID,919.23,VALID,0,VALID,97.3362,VALID,0,VALID,18.982,VALID,12,VALID,0.16838,
2002-09-18, 01:38:00,VALID,919.23,VALID,0,VALID,96.8937,VALID,0,VALID,18.9114,VALID,12,VALID,0.267228,
2002-09-18, 01:39:00,VALID,919.22,VALID,0,VALID,96.8136,VALID,0,VALID,18.844,VALID,12,VALID,0.336143,
2002-09-18, 01:40:00,VALID,919.208,VALID,0,VALID,96.8416,VALID,0,VALID,18.8018,VALID,12,VALID,0.287623,
2002-09-18, 01:41:00,VALID,919.2,VALID,0,VALID,97.0425,VALID,-0.0169808,VALID,18.776,VALID,12,VALID,0.20558,
2002-09-18, 01:42:00,VALID,919.187,VALID,0,VALID,97.3642,VALID,-0.0169808,VALID,18.7887,VALID,12,VALID,0.0486779,
2002-09-18, 01:43:00,VALID,919.18,VALID,0,VALID,97.4469,VALID,-0.0169808,VALID,18.8083,VALID,12,VALID,0,
2002-09-18, 01:44:00,VALID,919.169,VALID,0,VALID,97.3744,VALID,-0.0169808,VALID,18.8011,VALID,12,VALID,0,
2002-09-18, 01:45:00,VALID,919.157,VALID,0,VALID,97.1544,VALID,-0.0169808,VALID,18.7663,VALID,12,VALID,0,
2002-09-18, 01:46:00,VALID,919.132,VALID,0,VALID,96.9637,VALID,0,VALID,18.7082,VALID,12,VALID,0,
2002-09-18, 01:47:00,VALID,919.12,VALID,0,VALID,96.8251,VALID,0,VALID,18.6498,VALID,12,VALID,0.207617,
2002-09-18, 01:48:00,VALID,919.08,VALID,0,VALID,96.7844,VALID,-0.0169808,VALID,18.5951,VALID,12,VALID,0.442308,
2002-09-18, 01:49:00,VALID,919.069,VALID,0,VALID,96.909,VALID,-0.0169808,VALID,18.576,VALID,12,VALID,0.629687,
2002-09-18, 01:50:00,VALID,919.051,VALID,0,VALID,96.9064,VALID,0,VALID,18.5372,VALID,12,VALID,0.922656,
2002-09-18, 01:51:00,VALID,919.037,VALID,0,VALID,97.251,VALID,-0.0339617,VALID,18.5338,VALID,13,VALID,1.00655,
2002-09-18, 01:52:00,VALID,919.036,VALID,0,VALID,97.5435,VALID,-0.0169808,VALID,18.5529,VALID,13,VALID,0.99641,
2002-09-18, 01:53:00,VALID,919.028,VALID,0,VALID,97.3871,VALID,-0.0169808,VALID,18.5502,VALID,13,VALID,0.776953,
2002-09-18, 01:54:00,VALID,919.065,VALID,0,VALID,97.3986,VALID,0,VALID,18.5114,VALID,12,VALID,0.862946,
2002-09-18, 01:55:00,VALID,919.074,VALID,0,VALID,97.6173,VALID,-0.0339617,VALID,18.5079,VALID,9,VALID,0.904492,
2002-09-18, 01:56:00,VALID,919.087,VALID,0,VALID,97.8551,VALID,0,VALID,18.5569,VALID,7,VALID,0.936498,
2002-09-18, 01:57:00,VALID,919.085,VALID,0,VALID,98.042,VALID,-0.0339617,VALID,18.5951,VALID,13,VALID,0.868832,
2002-09-18, 01:58:00,VALID,919.062,VALID,0,VALID,98.0369,VALID,-0.0169808,VALID,18.6436,VALID,10,VALID,0.927632,
2002-09-18, 01:59:00,VALID,919.056,VALID,0,VALID,97.9466,VALID,0,VALID,18.657,VALID,15,VALID,0.799679,
2002-09-18, 02:00:00,VALID,919.042,VALID,0,VALID,97.9225,VALID,-0.0169808,VALID,18.6761,VALID,12,VALID,0.842773,
2002-09-18, 02:01:00,VALID,919.007,VALID,0,VALID,97.6898,VALID,0,VALID,18.6533,VALID,21,VALID,0.88014,
2002-09-18, 02:02:00,VALID,918.999,VALID,0,VALID,97.6236,VALID,-0.0339617,VALID,18.6272,VALID,21,VALID,0.786458,
2002-09-18, 02:03:00,VALID,918.965,VALID,0,VALID,97.6478,VALID,-0.0169808,VALID,18.6337,VALID,21,VALID,0.633013,
2002-09-18, 02:04:00,VALID,918.96,VALID,0,VALID,97.6554,VALID,-0.0169808,VALID,18.6475,VALID,20,VALID,0.516047,
2002-09-18, 02:05:00,VALID,918.956,VALID,0,VALID,97.7304,VALID,0,VALID,18.6565,VALID,20,VALID,0.312711,
2002-09-18, 02:06:00,VALID,918.972,VALID,0,VALID,97.6618,VALID,-0.0339617,VALID,18.6701,VALID,20,VALID,0.241406,
2002-09-18, 02:07:00,VALID,918.989,VALID,0,VALID,97.5969,VALID,0,VALID,18.6468,VALID,20,VALID,0.378676,
2002-09-18, 02:08:00,VALID,918.976,VALID,0,VALID,97.4876,VALID,0,VALID,18.6307,VALID,20,VALID,0.358141,
2002-09-18, 02:09:00,VALID,918.946,VALID,0,VALID,97.2218,VALID,0,VALID,18.5693,VALID,20,VALID,0.635617,
2002-09-18, 02:10:00,VALID,918.931,VALID,0,VALID,97.2409,VALID,0,VALID,18.5633,VALID,19,VALID,0.623998,
2002-09-18, 02:11:00,VALID,918.894,VALID,0,VALID,97.2167,VALID,-0.0169808,VALID,18.5149,VALID,15,VALID,0.684416,
2002-09-18, 02:12:00,VALID,918.87,VALID,0,VALID,97.5079,VALID,0,VALID,18.531,VALID,13,VALID,0.754001,
2002-09-18, 02:13:00,VALID,918.835,VALID,0,VALID,97.6567,VALID,-0.0339617,VALID,18.5368,VALID,17,VALID,0.523838,
2002-09-18, 02:14:00,VALID,918.8,VALID,0,VALID,97.7457,VALID,-0.0169808,VALID,18.5564,VALID,17,VALID,0.354096,
2002-09-18, 02:15:00,VALID,918.779,VALID,0,VALID,97.7877,VALID,0,VALID,18.5857,VALID,17,VALID,0.178865,
2002-09-18, 02:16:00,VALID,918.763,VALID,0,VALID,97.7482,VALID,0,VALID,18.5825,VALID,17,VALID,0,
2002-09-18, 02:17:00,VALID,918.751,VALID,0,VALID,97.7241,VALID,-0.0339617,VALID,18.585,VALID,17,VALID,0,
2002-09-18, 02:18:00,VALID,918.733,VALID,0,VALID,97.6948,VALID,-0.0169808,VALID,18.6021,VALID,17,VALID,0,
2002-09-18, 02:19:00,VALID,918.719,VALID,0,VALID,97.6732,VALID,-0.0169808,VALID,18.6053,VALID,17,VALID,0,
2002-09-18, 02:20:00,VALID,918.725,VALID,0,VALID,97.5728,VALID,0,VALID,18.6053,VALID,17,VALID,0,
2002-09-18, 02:21:00,VALID,918.719,VALID,0,VALID,97.4672,VALID,0,VALID,18.5986,VALID,17,VALID,0.127604,
2002-09-18, 02:22:00,VALID,918.711,VALID,0,VALID,97.4443,VALID,0,VALID,18.5884,VALID,17,VALID,0.0912829,
2002-09-18, 02:23:00,VALID,918.713,VALID,0,VALID,97.4685,VALID,0.0169808,VALID,18.5988,VALID,52,VALID,0.475694,
2002-09-18, 02:24:00,VALID,918.723,VALID,0,VALID,97.5728,VALID,0,VALID,18.6081,VALID,110,VALID,0.694696,
2002-09-18, 02:25:00,VALID,918.714,VALID,0,VALID,97.5639,VALID,-0.0169808,VALID,18.621,VALID,113,VALID,0.796875,
2002-09-18, 02:26:00,VALID,918.707,VALID,0,VALID,97.6236,VALID,-0.0169808,VALID,18.6244,VALID,114,VALID,0.931836,
2002-09-18, 02:27:00,VALID,918.699,VALID,0,VALID,97.6719,VALID,0,VALID,18.6505,VALID,112,VALID,0.851563,
2002-09-18, 02:28:00,VALID,918.695,VALID,0,VALID,97.6452,VALID,-0.0169808,VALID,18.6535,VALID,109,VALID,0.825195,
2002-09-18, 02:29:00,VALID,918.682,VALID,0,VALID,97.527,VALID,-0.0169808,VALID,18.654,VALID,93,VALID,0.915039,
2002-09-18, 02:30:00,VALID,918.692,VALID,0,VALID,97.4227,VALID,-0.0339617,VALID,18.6212,VALID,92,VALID,0.897593,
2002-09-18, 02:31:00,VALID,918.701,VALID,0,VALID,97.4202,VALID,-0.0169808,VALID,18.5919,VALID,95,VALID,1.03822,
2002-09-18, 02:32:00,VALID,918.695,VALID,0,VALID,97.4545,VALID,-0.0169808,VALID,18.5827,VALID,99,VALID,0.835938,
2002-09-18, 02:33:00,VALID,918.693,VALID,0,VALID,97.4748,VALID,0,VALID,18.5732,VALID,89,VALID,0.731473,
2002-09-18, 02:34:00,VALID,918.68,VALID,0,VALID,97.4253,VALID,-0.0169808,VALID,18.5472,VALID,86,VALID,0.721289,
2002-09-18, 02:35:00,VALID,918.649,VALID,0,VALID,97.4876,VALID,0,VALID,18.5474,VALID,84,VALID,0.876002,
2002-09-18, 02:36:00,VALID,918.613,VALID,0,VALID,97.0845,VALID,-0.0169808,VALID,18.4727,VALID,79,VALID,0.830181,
2002-09-18, 02:37:00,VALID,918.577,VALID,0,VALID,97.3134,VALID,0.0169808,VALID,18.4175,VALID,88,VALID,0.893092,
2002-09-18, 02:38:00,VALID,918.552,VALID,0,VALID,97.6389,VALID,-0.0849042,VALID,18.4355,VALID,105,VALID,0.834135,
2002-09-18, 02:39:00,VALID,918.529,VALID,0,VALID,97.7432,VALID,-0.101885,VALID,18.4482,VALID,139,VALID,0.361523,
2002-09-18, 02:40:00,VALID,918.508,VALID,0,VALID,97.8156,VALID,-0.101885,VALID,18.4452,VALID,122,VALID,0.640831,
2002-09-18, 02:41:00,VALID,918.481,VALID,0,VALID,97.8932,VALID,-0.118866,VALID,18.4323,VALID,118,VALID,0.680689,
2002-09-18, 02:42:00,VALID,918.468,VALID,0,VALID,97.8627,VALID,-0.118866,VALID,18.4067,VALID,98,VALID,0.589543,
2002-09-18, 02:43:00,VALID,918.426,VALID,0,VALID,97.9987,VALID,-0.101885,VALID,18.3677,VALID,121,VALID,0.736275,
2002-09-18, 02:44:00,VALID,918.409,VALID,0,VALID,98.1056,VALID,-0.0849042,VALID,18.3546,VALID,129,VALID,0.804054,
2002-09-18, 02:45:00,VALID,918.398,VALID,0,VALID,98.2912,VALID,-0.101885,VALID,18.3546,VALID,132,VALID,0.857422,
2002-09-18, 02:46:00,VALID,918.402,VALID,0,VALID,98.3993,VALID,-0.101885,VALID,18.361,VALID,129,VALID,0.644761,
2002-09-18, 02:47:00,VALID,918.398,VALID,0,VALID,98.4807,VALID,0.0849042,VALID,18.3555,VALID,123,VALID,0.488281,
2002-09-18, 02:48:00,VALID,918.405,VALID,0,VALID,98.5697,VALID,0.101885,VALID,18.3617,VALID,144,VALID,0.65625,
2002-09-18, 02:49:00,VALID,918.398,VALID,0,VALID,98.646,VALID,0.101885,VALID,18.3783,VALID,137,VALID,0.772436,
2002-09-18, 02:50:00,VALID,918.4,VALID,0,VALID,98.6816,VALID,0.0849042,VALID,18.3714,VALID,151,VALID,0.81949,
2002-09-18, 02:51:00,VALID,918.413,VALID,0,VALID,98.7655,VALID,0.101885,VALID,18.3716,VALID,150,VALID,1.00133,
2002-09-18, 02:52:00,VALID,918.404,VALID,0,VALID,98.8329,VALID,0.101885,VALID,18.3908,VALID,141,VALID,0.935096,
2002-09-18, 02:53:00,VALID,918.386,VALID,0,VALID,98.8711,VALID,0.101885,VALID,18.391,VALID,137,VALID,0.604941,
2002-09-18, 02:54:00,VALID,918.395,VALID,0,VALID,98.9385,VALID,0.101885,VALID,18.4007,VALID,132,VALID,0.852179,
2002-09-18, 02:55:00,VALID,918.378,VALID,0,VALID,99.0224,VALID,0.101885,VALID,18.4325,VALID,126,VALID,0.862253,
2002-09-18, 02:56:00,VALID,918.362,VALID,0,VALID,98.969,VALID,0.101885,VALID,18.4295,VALID,120,VALID,0.844752,
2002-09-18, 02:57:00,VALID,918.36,VALID,0,VALID,98.9855,VALID,0.0849042,VALID,18.4293,VALID,115,VALID,0.901727,
2002-09-18, 02:58:00,VALID,918.365,VALID,0,VALID,99.0326,VALID,0.0849042,VALID,18.433,VALID,109,VALID,0.838816,
2002-09-18, 02:59:00,VALID,918.376,VALID,0,VALID,99.0555,VALID,0.118866,VALID,18.4496,VALID,98,VALID,0.798437,
2002-09-18, 03:00:00,VALID,918.372,VALID,0,VALID,99.0682,VALID,0.0849042,VALID,18.4427,VALID,103,VALID,0.866386,
2002-09-18, 03:01:00,VALID,918.363,VALID,0,VALID,99.0885,VALID,0.101885,VALID,18.4487,VALID,102,VALID,0.839433,
2002-09-18, 03:02:00,VALID,918.361,VALID,0,VALID,99.0287,VALID,0.0169808,VALID,18.4337,VALID,92,VALID,0.633681,
2002-09-18, 03:03:00,VALID,918.354,VALID,0,VALID,98.9957,VALID,0,VALID,18.4081,VALID,90,VALID,0.764803,
2002-09-18, 03:04:00,VALID,918.34,VALID,0,VALID,99.0796,VALID,0,VALID,18.4018,VALID,97,VALID,0.725586,
2002-09-18, 03:05:00,VALID,918.341,VALID,0,VALID,99.0631,VALID,0,VALID,18.3984,VALID,102,VALID,0.64375,
2002-09-18, 03:06:00,VALID,918.351,VALID,0,VALID,99.0834,VALID,0,VALID,18.3857,VALID,121,VALID,0.664063,
2002-09-18, 03:07:00,VALID,918.358,VALID,0,VALID,99.1356,VALID,0,VALID,18.3859,VALID,134,VALID,0.908789,
2002-09-18, 03:08:00,VALID,918.38,VALID,0,VALID,99.1228,VALID,0,VALID,18.3922,VALID,129,VALID,0.937305,
2002-09-18, 03:09:00,VALID,918.396,VALID,0,VALID,99.1114,VALID,0,VALID,18.3726,VALID,136,VALID,0.956503,
2002-09-18, 03:10:00,VALID,918.414,VALID,0,VALID,99.133,VALID,-0.0169808,VALID,18.3624,VALID,138,VALID,0.886402,
2002-09-18, 03:11:00,VALID,918.416,VALID,0,VALID,99.1496,VALID,-0.0169808,VALID,18.373,VALID,122,VALID,1.04238,
2002-09-18, 03:12:00,VALID,918.393,VALID,0,VALID,99.1432,VALID,0.0169808,VALID,18.3728,VALID,116,VALID,1.0692,
2002-09-18, 03:13:00,VALID,918.377,VALID,0,VALID,99.1521,VALID,-0.0169808,VALID,18.3663,VALID,118,VALID,1.12734,
2002-09-18, 03:14:00,VALID,918.367,VALID,0,VALID,99.1635,VALID,0,VALID,18.3762,VALID,129,VALID,1.00982,
2002-09-18, 03:15:00,VALID,918.359,VALID,0,VALID,99.147,VALID,0,VALID,18.353,VALID,128,VALID,0.79338,
2002-09-18, 03:16:00,VALID,918.356,VALID,0,VALID,99.1292,VALID,0.0339617,VALID,18.3536,VALID,126,VALID,1.0588,
2002-09-18, 03:17:00,VALID,918.352,VALID,0,VALID,99.1356,VALID,0,VALID,18.3636,VALID,128,VALID,0.698518,
2002-09-18, 03:18:00,VALID,918.361,VALID,0,VALID,99.1178,VALID,0.0169808,VALID,18.3467,VALID,136,VALID,1.24746,
2002-09-18, 03:19:00,VALID,918.374,VALID,0,VALID,99.1063,VALID,0.0169808,VALID,18.3306,VALID,138,VALID,1.0551,
2002-09-18, 03:20:00,VALID,918.39,VALID,0,VALID,99.1216,VALID,0.0169808,VALID,18.3377,VALID,142,VALID,1.22656,
2002-09-18, 03:21:00,VALID,918.418,VALID,0,VALID,99.0987,VALID,0,VALID,18.3241,VALID,142,VALID,1.21314,
2002-09-18, 03:22:00,VALID,918.439,VALID,0,VALID,99.1228,VALID,0.0169808,VALID,18.3278,VALID,139,VALID,1.24134,
2002-09-18, 03:23:00,VALID,918.459,VALID,0,VALID,99.1101,VALID,0,VALID,18.3373,VALID,127,VALID,1.08256,
2002-09-18, 03:24:00,VALID,918.456,VALID,0,VALID,99.0758,VALID,0.0169808,VALID,18.3368,VALID,109,VALID,0.854688,
2002-09-18, 03:25:00,VALID,918.469,VALID,0,VALID,99.0351,VALID,0.0339617,VALID,18.3403,VALID,117,VALID,1.08433,
2002-09-18, 03:26:00,VALID,918.458,VALID,0,VALID,98.9868,VALID,0,VALID,18.347,VALID,122,VALID,1.24836,
2002-09-18, 03:27:00,VALID,918.449,VALID,0,VALID,98.9308,VALID,0.0339617,VALID,18.3472,VALID,91,VALID,0.988181,
2002-09-18, 03:28:00,VALID,918.445,VALID,0,VALID,98.8685,VALID,0,VALID,18.347,VALID,88,VALID,0.697516,
2002-09-18, 03:29:00,VALID,918.443,VALID,0,VALID,98.8965,VALID,0,VALID,18.3668,VALID,84,VALID,0.68935,
2002-09-18, 03:30:00,VALID,918.436,VALID,0,VALID,98.8444,VALID,0.0169808,VALID,18.3862,VALID,70,VALID,0.886624,
2002-09-18, 03:31:00,VALID,918.433,VALID,0,VALID,98.8304,VALID,0,VALID,18.3956,VALID,85,VALID,0.961739,
2002-09-18, 03:32:00,VALID,918.444,VALID,0,VALID,98.8049,VALID,0,VALID,18.4185,VALID,88,VALID,0.990498,
2002-09-18, 03:33:00,VALID,918.456,VALID,0,VALID,98.721,VALID,0,VALID,18.4281,VALID,92,VALID,0.766036,
2002-09-18, 03:34:00,VALID,918.457,VALID,0,VALID,98.7147,VALID,0,VALID,18.4185,VALID,75,VALID,0.735197,
2002-09-18, 03:35:00,VALID,918.459,VALID,0,VALID,98.5786,VALID,0,VALID,18.3825,VALID,65,VALID,0.755008,
2002-09-18, 03:36:00,VALID,918.458,VALID,0,VALID,98.5061,VALID,0,VALID,18.3539,VALID,59,VALID,0.993832,
2002-09-18, 03:37:00,VALID,918.46,VALID,0,VALID,98.4756,VALID,0,VALID,18.3343,VALID,71,VALID,0.9081,
2002-09-18, 03:38:00,VALID,918.467,VALID,0,VALID,98.4832,VALID,-0.0169808,VALID,18.328,VALID,84,VALID,0.941071,